Tracking 18987 objects as of 24-Feb-2018
HD Live streaming from Space Station
objects crossing your sky now

LEMUR 2 BRIANDAVIE

Track LEMUR 2 BRIANDAVIE now!
10-day predictions
LEMUR 2 BRIANDAVIE is classified as:


NORAD ID: 43047
Int'l Code: 2017-071L
Perigee: 456.0 km
Apogee: 460.0 km
Inclination: 51.6 °
Period: 93.6 minutes
Semi major axis: 6828 km
RCS: Unknown
Launch date: November 12, 2017
Source: United States (US)
Launch site: WALLOPS ISLAND (WLPIS)
aabbcc
Your satellite tracking list
Your tracking list is empty




NASA's NSSDC Master Catalog

Two Line Element Set (TLE):
1 43047U 17071L   18055.02075124 +.00005270 +00000-0 +14715-3 0  9999
2 43047 051.6386 232.4064 0002964 234.6729 125.3978 15.38399462012192
Source of the keplerian elements: AFSPC